Volver al catálogo

STARLINK-34796

ActivoComunicacionesVLEO
NORAD 65205·PAYLOAD·🇺🇸 United States

Lanzado Aug 14, 2025 desde Cape Canaveral Space Force Station

Loading…

Próximos Pases (próximas 24 horas)

TLE

ActualizadoSource: CelesTrak SupGP

Época: Sep 15, 2026, 03:42 UTC

1 65205C 25176H   26258.15465278  .00077665  00000+0  22946-2 0  2583
2 65205  53.1589 348.7948 0001098  92.6935 252.2841 15.34352305    12

Sigue STARLINK-34796 en tiempo real con AllMySat

Download on the App Store